STARLINK-35968, 66636

Orbit data source: Space-Track

STARLINK-35968, 66636 is a payload satellite owned by SpaceX/Seattle (US) in LEO that was launched on Sun, 23 Nov 2025 UTC via an FALCON 9 launch vehicle from the Air Force Western Test Range (AFWTR). Payload-class satellites include a variety of spacecraft equipped with specific instruments for various scientific and technological missions. These include communications satellites like Starlink; space stations such as the ISS; scientific satellites like the Hubble; Earth observation satellites from companies like Planet Labs, Umbra, and HawkEye 360; GPS; miniature CubeSats for education and research; and military/defense satellites.

Loading next visibility...
Identifier
66636, 2025-271V
Orbit
LEO
Country
Flag of USUS
Related business
Manufacturer
SpaceX/Seattle
Mission
Operational Commercial Communications
Bus & Motor
STARLINK V2MO, Unknown motor
Mass
575 kg wet, ~530 kg dry
Launch date (UTC)
2025-11-23 (1 month ago)
Launch vehicle
FALCON 9
Launch site
Air Force Western Test Range (AFWTR)
Object type
Payload
Rocket body
Debris
Shape & HBR
Box + 2 Pan, 17.7 m
Radar Cross Section
36.964 m²

Expand to show TLE details & history
Last TLE update: 14 hours ago

TLE from 14 hours ago
0 STARLINK-35968
1 66636U 25271V   25355.13474992  .00028325  00000-0  71529-3 0  9990
2 66636  53.1622 147.3616 0000979  71.6400 288.4711 15.39628525  5506
Epoch: 2025-12-21T03:14Z
TLE epoch observation values (Epoch: 2025-12-21T03:14:02.393Z)
Latitude
-0.00003°
Longitude
8.90006°
Altitude
447.899 km
Speed
7.645 km/s
True Right ascension
09h 49m 26s
True Declination
0° 00' 00"
Sunlit
Object was in full shadow at epoch
Visualization orbit readout
Latitude
Unknown
Longitude
Unknown
Altitude
Unknown
Speed
Unknown
Apparent Right ascension
Unknown
Apparent Declination
Unknown
Sunlit
N/A
Visualization observer readout
Local Sidereal Time
15:47:52
Azimuth
Unknown
Elevation
Unknown
Doppler factor
Unknown
Orbital elements
Apogee altitude
448.132 km
Perigee altitude
446.796 km
Semi-major axis
6,825.601 km
Eccentricity
0.0001
Inclination
53.1622°
RAAN
147.3616°
Arg. of periapsis
71.64°
True anomaly
288.46046°
Mean anomaly
288.4711°
Eccentric anomaly
288.46578°
Mean motion
3.84886 °/min
Orbital period
93.53 mins
BSTAR
0.00071529
Loading maneuver chart data...
Computing Atmospheric mass density...
Loading historical data...
Loading historical data...
Loading historical data...
Loading historical data...
Loading historical data...
Loading historical data...
Loading historical data...

Documentation

Showing up to 5 results
|